Back to catalog

FENGYUN 1C DEB

AliveSSO
NORAD 31030·DEBRIS·🇨🇳 China

Launched May 10, 1999 from Taiyuan Satellite Launch Center

Loading…

Next Passes (next 24 hours)

TLE

FreshSource: Space-Track

Epoch: Sep 14, 2026, 10:40 UTC

1 31030U 99025BDY 26257.44455429  .00001110  00000-0  49488-3 0  9990
2 31030  98.7427 323.2612 0026262   6.3448   6.9355 14.24652442  6253

Track FENGYUN 1C DEB in real time with AllMySat

Download on the App Store